Miscellaneous Local Product
Issued by NWS Hastings, NE

Home | Current Version | Previous Version | Graphics & Text | Print | Product List | Glossary On
Versions: 1 2 3 4 5 6 7 8 9 10 11 12 13 14 15 16 17 18 19 20 21 22 23 24 25 26 27 28 29 30 31 32 33 34 35 36 37 38 39 40 41 42 43 44 45 46 47 48 49 50
000
AXUS43 KGID 010902
MISGRI

GID CWA HOURLY WEATHER ROUNDUP
NATIONAL WEATHER SERVICE HASTINGS NE
400 AM CDT TUE SEP 01 2015

NOTE: "FAIR" INDICATES FEW OR NO CLOUDS BELOW 12,000 FEET WITH NO
SIGNIFICANT WEATHER AND/OR OBSTRUCTIONS TO VISIBILITY.

...SOUTH CENTRAL NEBRASKA...

CITY           SKY/WX    TMP DP  RH WIND       PRES   REMARKS
GRAND ISLAND   MOCLDY    67  63  87 S10       29.91S
HASTINGS       PTCLDY    69  61  75 S8        29.91F
KEARNEY        MOCLDY    72  55  56 S14       29.91S
ORD            CLOUDY    69  65  86 SE7       29.88S
YORK           CLEAR     66  64  94 S8        29.92S
AURORA         CLEAR     69  66  90 S9        29.90F
LEXINGTON      CLOUDY    73  57  57 W3        29.91S
HOLDREGE       MOCLDY    71  55  57 S13       29.92S
HEBRON         CLEAR     71  61  71 S7        29.93S

...NEBRASKA PANHANDLE...

CITY           SKY/WX    TMP DP  RH WIND       PRES   REMARKS
CHADRON        PTCLDY    66  49  54 S12       29.92F
ALLIANCE       MOCLDY    57  51  80 VRB5      29.98F
SCOTTSBLUFF    PTCLDY    58  54  86 CALM      29.99F
SIDNEY         MOCLDY    60  53  77 NW7       30.03F

...WESTERN AND NORTH CENTRAL NEBRASKA...

CITY           SKY/WX    TMP DP  RH WIND       PRES   REMARKS
VALENTINE      CLOUDY    60  58  92 NW3       29.92F
AINSWORTH      CLOUDY    66  64  94 NW5       29.91F
ONEILL         CLOUDY    69  68  96 CALM      29.89F
BROKEN BOW     CLOUDY    67  64  90 E3        29.89F
IMPERIAL       CLOUDY    66  62  87 CALM      29.94F
NORTH PLATTE   CLOUDY    67  61  81 S3        29.91F
MCCOOK         TSTM      73  61  65 NW8       29.92R

...EASTERN NEBRASKA...

CITY           SKY/WX    TMP DP  RH WIND       PRES   REMARKS
NORFOLK        CLEAR     67  65  93 E5        29.89F
SO SIOUX CITY  CLEAR     67  64  90 E9        29.89F
TEKAMAH        CLEAR     66  65  96 SE6       29.90F
COLUMBUS       CLEAR     72  63  73 S6        29.90F
ALBION         PTCLDY    67  65  91 SE6       29.90S FOG
OMAHA EPPLEY   CLEAR     71  68  90 S9        29.93S
OFFUTT AFB     CLEAR     69  69  98 E5        29.92F
MILLARD        CLEAR     70  68  94 CALM      29.92S
LINCOLN        CLEAR     70  66  87 S9        29.92F
NEBRASKA CITY  CLEAR     71  66  85 S10       29.95S
BEATRICE       CLEAR     70  66  88 SE5       29.95S
FALLS CITY     CLEAR     73  68  84 S9        29.95S

...NORTHERN KANSAS...

CITY           SKY/WX    TMP DP  RH WIND       PRES   REMARKS
GOODLAND       MOCLDY    64  61  90 W7        30.00R
HILL CITY      MOCLDY    73  54  51 SW8       29.96R
NORTON         SUNNY     73  52  46 S10       29.93S
PHILLIPSBURG   CLEAR     75  55  50 CALM      29.94R
SMITH CENTER   CLEAR     70  55  60 S7        29.94S
HAYS           PTCLDY    75  55  50 S16       29.95F
RUSSELL        CLEAR     74  61  63 S15       29.94F
CONCORDIA      CLEAR     73  62  68 S16       29.94R
SALINA         CLEAR     74  62  66 S13       29.95S
TOPEKA         CLEAR     74  70  87 SE3       29.98R



USA.gov is the U.S. government's official web portal to all federal, state and local government web resources and services.